Location: Appleton
(44.2618°N, 88.4157°W)
Time: 11:46:40
(UTC+00:00)

S-56A Canister/Altair - Pass Details

Date: 28 February 2021
Orbit: 632 x 2500 km, 38.9° (Epoch: 18 April)

Event Time Altitude Azimuth Distance (km) Brightness Sun altitude
Rises 21:14:43 0° 242° (WSW) 5,884 13.4 23.0°
Reaches altitude 10° 21:18:24 10° 240° (WSW) 5,008 13.7 22.4°
Maximum altitude 21:33:03 64° 164° (SSE) 2,678 10.7 20.3°
Drops below altitude 10° 21:46:36 10° 88° (E) 4,679 11.1 18.3°
Sets 21:49:56 0° 85° (E) 5,491 11.3 17.7°
